User: anonymous   Login
Location: Clinton NY
(43.0598°N, 75.3602°W)
Time: 18:49:46
(UTC-04:00)
Language:

ISS - Orbit

View from above orbital plane
View from above orbital plane
View from above satellite
View from above satellite

Ground track
Ground track

The orbit data is extracted from the following two-line orbital elements,

1 25544U 98067A   17207.58154537  .00016717  00000-0  10270-3 0  9024
2 25544  51.6371 201.9529 0006169  71.3755 288.8067 15.54216768 27871
Epoch (UTC): 26 July 2017 13:57:25
Eccentricity: 0.0006169
inclination: 51.6371°
perigee height: 400 km
apogee height: 408 km
right ascension of ascending node: 201.9529°
argument of perigee: 71.3755°
revolutions per day: 15.54216768
mean anomaly at epoch: 288.8067°
orbit number at epoch: 2787

The dashed part of the orbit path shows where the satellite is in the earth's shadow,  

DLR